Find Starlink 31385

NORAD ID: 58985 Int'l Des: 2024-031 Owner: SPXS Country: US Constellation: starlink operational
LEOCIRCULAR

リアルタイム位置

3D地球を読み込み中...

Starlink 31385について

説明を読み込み中...

次回通過

Passes for default location (London). Set your location on the main map for personalized predictions.

高度履歴

Loading altitude history...

軌道要素

1 58985U 24031W 26125.43477066 .00003694 00000-0 12039-3 0 9998
2 58985 53.1610 30.7681 0001170 85.8684 274.2453 15.34403835125232
Epoch: May 5, 2026 • Age: 12 hours

現在のステータス

高度 462.7 km
速度 7.64 km/s
衛星直下点 8.84°N, 6.4°E
打ち上げ日 Feb 15, 2024
運用期間 2.2 years
タイプ internet

技術仕様

分類 Payload
質量 730.00 kg
乾燥質量 700.00 kg
総質量 730.00 kg
長さ 0.30 m
直径 4.10 m
スパン 29.00 m
形状 Box + pan
製造者 SPXS
バスタイプ Starlink V2M
フェーズステータス In Orbit
所有者/国 SPXS/US

Most Searched